SKYSAT-C10

Last updated on Tue Jul 01 2025 00:02:30 GMT+0000 (Coordinated Universal Time)

1 42988U 17068B 25181.30886215 .00006540 00000+0 21993-3 0 9994 2 42988 97.4075 312.0406 0002880 77.8115 282.3448 15.31144899428479
UTC large
Height (km)
Speed (km/s)
/
Latitude / Longitude
Inclination (degrees)
Orbital Period (minutes)
Azimuth
Elevation
Range (km)
Doppler Factor

Next 0 passes for location: London (51.5072 / 0.1276)

Sorry there are no passes over London.